Skip Page Navigation
NASA JPL Caltech
NASA Logo - Jet Propulsion Laboratory + View the NASA Portal
+ Near-Earth Object (NEO) Program
Search JPL
JPL Home Earth Solar System Stars & Galaxies Technology
JPL Solar System Dynamics
BODIES ORBITS EPHEMERIDES TOOLS PHYSICAL DATA DISCOVERY FAQ SITE MAP
JPL Small-Body Database Browser
Search: [ help ]  
(2005 TR50)
Classification: Apollo [NEO, PHA]          SPK-ID: 3293925
Ephemeris | Orbit Diagram | Orbital Elements | Physical Parameters | Close-Approach Data ]

[ hide orbit diagram ]
Orbit Diagram
Note: Make sure you have Java enabled on your browser to see the applet. This applet is provided as a 3D orbit visualization tool. The applet was implemented using 2-body methods, and hence should not be used for determining accurate long-term trajectories (over several years or decades) or planetary encounter circumstances. For accurate long-term ephemerides, please instead use our Horizons system.
Orbit Viewer

Additional Notes: the orbits shown in the applet are color coded. The planets are white lines, and the asteroid/comet is a blue line. The bright white line indicates the portion of the orbit that is above the ecliptic plane, and the darker portion is below the ecliptic plane. Likewise for the asteroid/comet orbit, the light blue indicates the portion above the ecliptic plane, and the dark blue the portion below the ecliptic plane.

Orbit Viewer applet originally written and kindly provided by Osamu Ajiki (AstroArts), and further modified by Ron Baalke (JPL).


Orbital Elements at Epoch 2456400.5 (2013-Apr-18.0) TDB
Reference: JPL 16 (heliocentric ecliptic J2000)
 Element Value Uncertainty (1-sigma)   Units 
e .4557811684528387 6.5263e-08  
a 1.61457220415584 6.7429e-08 AU
q .8786805983942158 8.786e-08 AU
i 34.06155067504233 3.2268e-05 deg
node 29.49575584922723 3.9927e-06 deg
peri 49.21479542367751 1.784e-05 deg
M 215.1091592423919 8.3024e-05 deg
tp 2456702.094256016181
(2014-Feb-13.59425602)
0.00019168 JED
period 749.3498664105441
2.05
4.6942e-05
1.285e-07
d
yr
n .4804164464917217 3.0095e-08 deg/d
Q 2.350463809917464 9.8161e-08 AU
  Orbit Determination Parameters
   # obs. used (total)      83  
   data-arc span      896 days (2.45 yr)  
   first obs. used      2005-10-10  
   last obs. used      2008-03-24  
   planetary ephem.      DE405  
   SB-pert. ephem.      SB405-CPV-2  
   condition code      0  
   fit RMS      .51164  
   data source      ORB  
   producer      Otto Matic  
   solution date      2011-Sep-14 20:04:46  

Additional Information
 Earth MOID = .00855062 AU 
 T_jup = 4.044 
[ show covariance matrix ]

Ephemeris | Orbit Diagram | Orbital Elements | Physical Parameters | Close-Approach Data ]

Physical Parameter Table
Parameter Symbol Value Units Sigma Reference Notes
absolute magnitude H 20.215 mag .44313 16 autocmod 2.5a

[ show close-approach data ]
Ephemeris | Orbit Diagram | Orbital Elements | Physical Parameters | Close-Approach Data ]
ABOUT SSD CREDITS/AWARDS PRIVACY/COPYRIGHT GLOSSARY LINKS
FirstGov 2013-May-21 16:57 UT
(server date/time)  
NASA Home Page
Site Manager:   Donald K. Yeomans
Webmaster  Alan B. Chamberlin